Regional Weather Roundup
Issued by NWS

Home | Current Version | Previous Version | Text Only | Print | Product List | Glossary Off
Versions: 1 2 3 4 5 6 7 8 9 10 11 12 13 14 15 16 17 18 19 20 21 22 23 24 25 26 27 28 29 30 31 32 33 34 35 36 37 38 39 40 41 42 43 44 45 46 47 48 49 50

000
ASUS43 KDMX 222201
RWRIA

WEATHER ROUNDUP FOR IOWA
NATIONAL WEATHER SERVICE DES MOINES IA
500 PM CDT WED MAR 22 2017

NOTE: "FAIR" INDICATES FEW OR NO CLOUDS BELOW 12,000 FEET WITH NO
SIGNIFICANT WEATHER AND/OR OBSTRUCTIONS TO VISIBILITY.

* - THESE STATIONS ARE NOT NWS STATIONS...THUS NOT UNDER NWS
QUALITY CONTROL.  THEY ALSO DO NOT REPORT WEATHER SUCH
AS PRECIPITATION OR FOG.

IAZ001>003-012>014-020>022-031>034-043>046-222300-
   NORTHWEST IOWA

CITY           SKY/WX    TMP DP  RH WIND       PRES   REMARKS
CARROLL *      CLOUDY    43  27  52 SE21G29   30.30F
CHEROKEE *     CLOUDY    41  24  51 SE17G23   30.28F
DENISON *      CLOUDY    43  28  56 SE16G22   30.25F
LE MARS *      CLOUDY    41  25  52 SE14G24   30.25F
ORANGE CITY *  CLOUDY    39  27  60 SE12G22   30.23F WCI  32
SHELDON *      CLOUDY    37  28  70 SE15G22   30.24F WCI  28
SIOUX CITY     CLOUDY    44  28  53 SE20      30.23F
SPENCER        CLOUDY    37  24  59 SE16      30.30F WCI  28
$$

IAZ055>058-069>071-079>083-090>094-222300-
   SOUTHWEST IOWA

CITY           SKY/WX    TMP DP  RH WIND       PRES   REMARKS
ATLANTIC *     CLOUDY    48  23  37 SE14G23   30.27F
AUDUBON *      CLOUDY    45  28  53 E17       30.29F
CLARINDA *     CLOUDY    50  27  40 SE17G24   30.28F
COUNCIL BLFS * MOSUNNY   50  23  34 SE18      30.23F
CRESTON *      CLOUDY    48  23  37 SE17G23   30.30F
HARLAN  *      CLOUDY    48  25  40 SE17      30.29F
LAMONI         CLOUDY    46  22  38 SE14G21   30.30F
RED OAK *      CLOUDY    50  23  34 SE15G22   30.25F
SHENANDOAH *   CLOUDY    50  27  40 SE18      30.25F
$$

IAZ047>049-059>061-072>074-084-222300-
   CENTRAL IOWA

CITY           SKY/WX    TMP DP  RH WIND       PRES   REMARKS
AMES           CLOUDY    44  22  41 SE15      30.35F
ANKENY *       CLOUDY    45  23  42 SE15      30.35F
BOONE *        CLOUDY    43  19  39 SE20      30.32F
CHARITON *     CLOUDY    46  21  36 E16       30.32F
DES MOINES     CLOUDY    46  22  38 E13       30.34F
GRINNELL*      PTSUNNY   44  16  33 SE14G20   30.39F
KNOXVILLE *    CLOUDY    45  21  39 E10G17    30.34F
MARSHALLTOWN   PTSUNNY   43  16  33 SE16      30.37F
NEWTON *       CLOUDY    45  19  36 SE15      30.36F
PELLA *        SUNNY     45  21  38 SE12      30.38F
PERRY *        CLOUDY    43  22  44 E16G22    30.33F
$$

IAZ004>006-015-016-023>025-035-036-222300-
   NORTH CENTRAL IOWA

CITY           SKY/WX    TMP DP  RH WIND       PRES   REMARKS
ALGONA *       CLOUDY    37  25  60 SE14G20   30.33F WCI  29
CLARION *      CLOUDY    41  23  48 SE13G22   30.35F
ESTHERVILLE    CLOUDY    35  26  69 SE15      30.31F WCI  25
FORT DODGE *   CLOUDY    41  19  42 SE12      30.35S
MASON CITY     PTSUNNY   39  19  44 SE15      30.38F WCI  31
FOREST CITY *    N/A     37  23  56 SE12      30.36F WCI  30
WEBSTER CITY * CLOUDY    43  19  39 SE20      30.31F
IOWA FALLS *     N/A     43  20  41 SE12G17   30.38F
$$

IAZ007>011-017>019-026>030-037>042-050>054-066-222300-
   NORTHEAST IOWA

CITY           SKY/WX    TMP DP  RH WIND       PRES   REMARKS
CEDAR RAPIDS   CLOUDY    41  16  36 E14       30.40F
CHARLES CITY * CLOUDY    41  14  33 SE18      30.40F
CLINTON *      MOSUNNY   43  21  41 SE12      30.46F
DECORAH *      MOSUNNY   39  12  33 SE10      30.41F WCI  32
DUBUQUE        SUNNY     40  12  32 SE10      30.44F WCI  33
MONTICELLO *   SUNNY     41  14  33 E14       30.44F
OELWEIN *      CLOUDY    41  14  33 SE18      30.41F
WATERLOO       CLOUDY    42  14  32 SE12      30.40F
$$

IAZ064-065-067-068-078-222300-
   EAST CENTRAL IOWA

CITY           SKY/WX    TMP DP  RH WIND       PRES   REMARKS
DAVENPORT      MOSUNNY   43  16  33 SE10      30.45F
IOWA CITY      CLOUDY    44  18  35 E12       30.43F
MUSCATINE *    MOSUNNY   43  18  36 E10       30.44F
QUAD CITIES    MOSUNNY   44  19  36 E10       30.44F
$$

IAZ062-063-075>077-085>089-095>099-222300-
   SOUTHEAST IOWA

CITY           SKY/WX    TMP DP  RH WIND       PRES   REMARKS
BURLINGTON     MOSUNNY   46  19  34 E13G21    30.41F
FAIRFIELD *    MOSUNNY   46  19  34 E13G18    30.40S
FORT MADISON * MOSUNNY   52  19  28 SE12      30.41S
KEOKUK *       CLOUDY    46  16  29 E14       30.39F
OSKALOOSA *    CLOUDY    46  22  37 SE13      30.39F
CENTERVILLE *    N/A     46  19  34 E12       30.36F
OTTUMWA        CLOUDY    46  20  35 SE14G22   30.38F
WASHINGTON *   CLOUDY    45  18  33 SE16      30.42F
$$

ABBREVIATIONS USED IN REMARKS
   TC - TEMPERATURES IN CELSIUS
  WCI - WIND CHILL INDEX
   HX - HEAT INDEX
  VSB - VISIBILITY
$$




USA.gov is the U.S. government's official web portal to all federal, state and local government web resources and services.